Location: Newark
(36.0797°N, 3.9744°E)
Time: 21:54:22
(UTC+00:00)

Transit 2A - All Passes

Search period start: 15 December 2019 00:00
Search period end: 25 December 2019 00:00
Orbit: 602 x 957 km, 66.7° (Epoch: 14 December)

Date Brightness Start Highest point End Pass type
(mag) Time Alt. Az. Time Alt. Az. Time Alt. Az.
15 Dec - 03:59:15 10° SE 04:01:57 15° ESE 04:04:34 10° ENE visible
15 Dec - 05:40:02 10° SW 05:44:44 49° WNW 05:49:07 10° NNE visible
15 Dec - 14:28:19 10° NNW 14:32:48 64° ENE 14:37:38 10° SE daylight
15 Dec - 16:14:11 10° W 16:15:29 11° WSW 16:16:48 10° WSW daylight
16 Dec - 05:05:43 10° SSW 05:10:36 78° WNW 05:15:07 10° NNE visible
16 Dec - 13:54:24 10° NNW 13:58:39 40° ENE 14:03:12 10° SE daylight
16 Dec - 15:38:22 10° WNW 15:41:30 18° WSW 15:44:48 10° SSW daylight
17 Dec - 04:31:39 10° SSW 04:36:31 66° ESE 04:41:00 10° NNE visible
17 Dec - 06:17:48 10° WNW 06:19:59 13° NW 06:22:05 10° NNW visible
17 Dec - 13:20:37 10° N 13:24:27 27° NE 13:28:30 10° ESE daylight
17 Dec - 15:03:34 10° NW 15:07:30 28° WSW 15:11:42 10° S daylight
18 Dec - 03:57:52 10° S 04:02:27 40° ESE 04:06:42 10° NE visible
18 Dec - 05:42:16 10° W 05:45:39 19° NW 05:48:55 10° N visible
18 Dec - 12:47:04 10° N 12:50:11 18° NE 12:53:27 10° E daylight
18 Dec - 14:29:06 10° NW 14:33:28 45° WSW 14:38:11 10° S daylight
19 Dec - 03:24:25 10° SSE 03:28:25 25° ESE 03:32:10 10° NE visible
19 Dec - 05:07:17 10° WSW 05:11:25 29° WNW 05:15:19 10° N visible
19 Dec - 12:14:03 10° NNE 12:15:52 12° NE 12:17:43 10° ENE daylight
19 Dec - 13:54:50 10° NNW 13:59:23 73° WSW 14:04:20 10° SSE daylight
20 Dec - 02:51:27 10° SE 02:54:25 16° ESE 02:57:15 10° ENE night (unlit)
20 Dec - 04:32:38 10° SW 04:37:14 44° WNW 04:41:31 10° NNE visible
20 Dec - 13:20:44 10° NNW 13:25:17 71° ENE 13:30:13 10° SSE daylight
21 Dec - 03:58:16 10° SSW 04:03:05 71° WNW 04:07:33 10° NNE visible
21 Dec - 12:46:47 10° NNW 12:51:09 45° ENE 12:55:51 10° SE daylight
21 Dec - 14:31:00 10° WNW 14:33:58 17° WSW 14:37:05 10° SSW daylight
22 Dec - 03:24:09 10° SSW 03:28:58 73° ESE 03:33:27 10° NNE night (unlit)
22 Dec - 05:10:50 10° WNW 05:12:30 12° NW 05:14:09 10° NNW visible
22 Dec - 12:12:58 10° N 12:16:57 29° ENE 12:21:12 10° ESE daylight
22 Dec - 13:56:06 10° NW 13:59:58 26° WSW 14:04:06 10° SSW daylight
23 Dec - 02:50:19 10° S 02:54:54 44° ESE 02:59:11 10° NE night (unlit)
23 Dec - 04:35:02 10° W 04:38:10 18° NW 04:41:12 10° N visible
23 Dec - 11:39:21 10° N 11:42:42 20° NE 11:46:13 10° E daylight
23 Dec - 13:21:35 10° NW 13:25:55 41° WSW 13:30:38 10° S daylight
24 Dec - 02:16:47 10° SSE 02:20:52 28° ESE 02:24:43 10° NE night (unlit)
24 Dec - 03:59:57 10° WSW 04:03:54 26° NW 04:07:40 10° N night (unlit)
24 Dec - 11:06:08 10° NNE 11:08:24 13° NE 11:10:43 10° E daylight
24 Dec - 12:47:17 10° NNW 12:51:52 66° WSW 12:56:50 10° SSE daylight
